Location: La Fredeussais
(48.1780°N, 1.3980°W)
Time: 11:21:53
(UTC+00:00)

PRISM - Pass Details

Date: 30 October 2021
Orbit: 561 x 584 km, 98.2° (Epoch: 29 November)

Event Time Altitude Azimuth Distance (km) Brightness Sun altitude
Rises 03:51:32 0° 17° (NNE) 2,796 ? -29.8°
Reaches altitude 10° 03:53:44 10° 22° (NNE) 1,888 ? -29.4°
Enters shadow 03:55:52 29° 35° (NE) 1,074 ? -29.1°
